LiveATC.Net - Listen to live air traffic control over the Internet! Contact LiveATC.net for advertising information


ICAO: KTEB  IATA: TEB   Airport: Teterboro Airport
City: Teterboro   State/Province: New Jersey
Country: United States   Continent: North America
KTEB METAR Weather: KTEB 230651Z 36011G20KT 10SM OVC024 12/07 A2971 RMK AO2 SLP061 T01170072 $
KTEB Flight Activity (FlightAware)
KTEB Airport Info   (AirNav) (iFlightPlanner)
KTEB Tower
Feed Status: UP   Listeners: 6
Listen right in your browser - requires Flash (in browser, requires Flash)
Click here to listen with your own player (launches your MP3 player)
KTEB Tower Audio Archives
FacilityFrequency
Teterboro Tower119.500
Teterboro Tower125.100


NOTICE

Unauthorized use prohibited. See LiveATC.net Terms of Service


Find LiveATC Audio Streams


Airport/ARTCC Code

Frequency
(e.g., 124.400, 128.75)
Site-wide search

Browse LiveATC Feeds
LiveATC Coverage Map
Top 50 LiveATC Feeds
Bad Weather Areas

LiveATC FAQ
Offer a LiveATC Feed
Contact LiveATC.net
Press Inquiries

LiveATC on iPhone
LiveATC on Android

LiveATC Mobile
(Mobile browser)

ATC Audio Archives
Interesting Recordings

LiveATC Forums


Home Page
About LiveATC.net
Make a Donation
LiveATC Bookstore

Terms of Use
Privacy Policy

ATC/Radar Sites
U.S. ARTCC Freqs
Canadian Air Freqs

AIRMETs/SIGMETs

FAA Airport Status
Nat'l Airspace Status
Arrival Demand Charts


Server Software By:
Icecast.org
Liquidsoap

Please make a donation to help us keep growing!